Station Historical Data
Daily Summary for January 6, 2017 Units:  English    Metric   Both
« Previous Day
Next Day »
Daily Weekly Monthly Yearly Custom
  High: Low: Average:
Temperature: 18.9 °F 5.8 °F 12.1 °F
Dew Point: 7.4 °F -1.3 °F 3.1 °F
Humidity: 77% 54% 67%
Wind Speed: 16.0mph 0.0mph 4.1mph
Wind Gust: 21.0mph - -
Wind- - West
Pressure: 30.34 in 30.00 in -
Precipitation: 0.00 in    
Historical Graphs
 
 
Tabular Data for January 6, 2017
Time Temperature Dew Point Pressure Wind Wind Speed Wind Gust Humidity Rainfall Rate (Hourly)
00:04 13.7 °F 6.6 °F 30.00 in SW 5.0 mph 8.0 mph 73% 0.00 in
00:09 13.5 °F 6.5 °F 30.00 in West 4.0 mph 9.0 mph 73% 0.00 in
00:14 13.4 °F 6.1 °F 30.00 in West 5.0 mph 12.0 mph 72% 0.00 in
00:19 13.2 °F 5.9 °F 30.00 in West 6.0 mph 12.0 mph 72% 0.00 in
00:24 13.2 °F 5.9 °F 30.01 in West 5.0 mph 11.0 mph 72% 0.00 in
00:29 13.0 °F 5.7 °F 30.01 in West 5.0 mph 9.0 mph 72% 0.00 in
00:34 12.8 °F 5.5 °F 30.01 in West 5.0 mph 10.0 mph 72% 0.00 in
00:39 12.8 °F 5.8 °F 30.01 in West 8.0 mph 9.0 mph 73% 0.00 in
00:44 12.7 °F 5.7 °F 30.01 in WNW 3.0 mph 9.0 mph 73% 0.00 in
00:49 12.6 °F 5.3 °F 30.01 in West 2.0 mph 8.0 mph 72% 0.00 in
00:54 12.5 °F 5.2 °F 30.01 in WNW 6.0 mph 15.0 mph 72% 0.00 in
00:59 12.4 °F 5.1 °F 30.01 in WNW 4.0 mph 12.0 mph 72% 0.00 in
01:04 12.4 °F 5.1 °F 30.01 in West 7.0 mph 13.0 mph 72% 0.00 in
01:09 12.3 °F 5.0 °F 30.01 in West 7.0 mph 12.0 mph 72% 0.00 in
01:14 12.2 °F 4.9 °F 30.01 in West 5.0 mph 12.0 mph 72% 0.00 in
01:19 12.1 °F 4.8 °F 30.01 in West 5.0 mph 9.0 mph 72% 0.00 in
01:24 11.9 °F 4.6 °F 30.01 in West 5.0 mph 9.0 mph 72% 0.00 in
01:29 11.8 °F 4.5 °F 30.01 in West 4.0 mph 9.0 mph 72% 0.00 in
01:34 11.6 °F 4.3 °F 30.00 in WNW 3.0 mph 11.0 mph 72% 0.00 in
01:39 11.5 °F 4.2 °F 30.00 in NW 6.0 mph 10.0 mph 72% 0.00 in
01:44 11.4 °F 4.1 °F 30.01 in WNW 2.0 mph 7.0 mph 72% 0.00 in
01:49 11.2 °F 3.9 °F 30.01 in WSW 4.0 mph 8.0 mph 72% 0.00 in
01:54 11.0 °F 4.0 °F 30.01 in West 4.0 mph 8.0 mph 73% 0.00 in
01:59 10.8 °F 3.8 °F 30.01 in West 2.0 mph 7.0 mph 73% 0.00 in
02:04 10.7 °F 3.7 °F 30.01 in West 5.0 mph 8.0 mph 73% 0.00 in
02:09 10.6 °F 3.6 °F 30.01 in West 4.0 mph 8.0 mph 73% 0.00 in
02:14 10.4 °F 3.5 °F 30.01 in West 3.0 mph 7.0 mph 73% 0.00 in
02:19 10.3 °F 3.4 °F 30.01 in WNW 3.0 mph 9.0 mph 73% 0.00 in
02:24 10.2 °F 3.6 °F 30.02 in West 4.0 mph 9.0 mph 74% 0.00 in
02:29 10.1 °F 3.5 °F 30.02 in WNW 5.0 mph 5.0 mph 74% 0.00 in
02:34 10.0 °F 3.4 °F 30.02 in West 3.0 mph 5.0 mph 74% 0.00 in
02:39 9.9 °F 3.3 °F 30.02 in West 3.0 mph 5.0 mph 74% 0.00 in
02:44 9.8 °F 3.2 °F 30.02 in West 2.0 mph 5.0 mph 74% 0.00 in
02:49 9.6 °F 3.0 °F 30.02 in WNW 2.0 mph 4.0 mph 74% 0.00 in
02:54 9.6 °F 3.3 °F 30.02 in WNW 2.0 mph 6.0 mph 75% 0.00 in
02:59 9.5 °F 3.2 °F 30.02 in West 3.0 mph 8.0 mph 75% 0.00 in
03:04 9.4 °F 3.1 °F 30.02 in West 3.0 mph 8.0 mph 75% 0.00 in
03:09 9.5 °F 3.2 °F 30.02 in WSW 1.0 mph 5.0 mph 75% 0.00 in
03:14 9.4 °F 3.1 °F 30.02 in WNW 2.0 mph 7.0 mph 75% 0.00 in
03:19 9.3 °F 3.0 °F 30.02 in West 2.0 mph 6.0 mph 75% 0.00 in
03:29 9.4 °F 3.1 °F 30.02 in West 3.0 mph 9.0 mph 75% 0.00 in
03:34 9.4 °F 3.1 °F 30.02 in West 3.0 mph 9.0 mph 75% 0.00 in
03:39 9.5 °F 3.2 °F 30.02 in WSW 3.0 mph 8.0 mph 75% 0.00 in
03:44 9.6 °F 3.0 °F 30.03 in SW 3.0 mph 10.0 mph 74% 0.00 in
03:49 9.6 °F 3.0 °F 30.03 in West 3.0 mph 10.0 mph 74% 0.00 in
03:54 9.6 °F 3.3 °F 30.03 in WSW 2.0 mph 6.0 mph 75% 0.00 in
03:59 9.6 °F 3.0 °F 30.03 in WSW 3.0 mph 7.0 mph 74% 0.00 in
04:04 9.6 °F 3.0 °F 30.03 in WSW 3.0 mph 7.0 mph 74% 0.00 in
04:09 9.6 °F 3.0 °F 30.03 in West 3.0 mph 7.0 mph 74% 0.00 in
04:14 9.5 °F 3.2 °F 30.03 in West 2.0 mph 6.0 mph 75% 0.00 in
04:19 9.5 °F 3.2 °F 30.03 in West 3.0 mph 8.0 mph 75% 0.00 in
04:29 9.4 °F 3.1 °F 30.04 in WSW 4.0 mph 7.0 mph 75% 0.00 in
04:34 9.3 °F 3.0 °F 30.04 in West 3.0 mph 7.0 mph 75% 0.00 in
04:39 9.2 °F 2.9 °F 30.04 in West 3.0 mph 7.0 mph 75% 0.00 in
04:44 9.2 °F 2.9 °F 30.04 in West 2.0 mph 7.0 mph 75% 0.00 in
04:49 9.2 °F 2.9 °F 30.04 in West 4.0 mph 7.0 mph 75% 0.00 in
04:54 9.1 °F 2.8 °F 30.04 in West 3.0 mph 7.0 mph 75% 0.00 in
04:59 9.0 °F 2.7 °F 30.04 in West 3.0 mph 6.0 mph 75% 0.00 in
05:04 8.9 °F 2.6 °F 30.05 in West 3.0 mph 6.0 mph 75% 0.00 in
05:09 8.8 °F 2.2 °F 30.05 in West 3.0 mph 6.0 mph 74% 0.00 in
05:14 8.8 °F 2.2 °F 30.05 in WNW 5.0 mph 5.0 mph 74% 0.00 in
05:19 8.8 °F 2.2 °F 30.05 in West 3.0 mph 10.0 mph 74% 0.00 in
05:24 8.8 °F 2.2 °F 30.05 in West 3.0 mph 5.0 mph 74% 0.00 in
05:29 8.7 °F 2.1 °F 30.05 in WSW 3.0 mph 4.0 mph 74% 0.00 in
05:34 8.7 °F 2.1 °F 30.05 in WNW 3.0 mph 5.0 mph 74% 0.00 in
05:39 8.7 °F 2.1 °F 30.06 in West 3.0 mph 5.0 mph 74% 0.00 in
05:44 8.7 °F 2.1 °F 30.06 in WSW 3.0 mph 6.0 mph 74% 0.00 in
05:49 8.8 °F 2.2 °F 30.06 in West 8.0 mph 8.0 mph 74% 0.00 in
05:54 8.9 °F 2.0 °F 30.07 in West 5.0 mph 9.0 mph 73% 0.00 in
05:59 8.9 °F 2.0 °F 30.07 in WNW 4.0 mph 7.0 mph 73% 0.00 in
06:04 8.9 °F 2.0 °F 30.07 in WNW 3.0 mph 8.0 mph 73% 0.00 in
06:09 8.9 °F 2.0 °F 30.07 in West 4.0 mph 11.0 mph 73% 0.00 in
06:14 8.9 °F 2.0 °F 30.08 in West 4.0 mph 11.0 mph 73% 0.00 in
06:19 9.0 °F 2.1 °F 30.08 in WNW 4.0 mph 8.0 mph 73% 0.00 in
06:24 9.0 °F 1.8 °F 30.08 in West 5.0 mph 10.0 mph 72% 0.00 in
06:29 9.0 °F 2.1 °F 30.08 in WNW 7.0 mph 8.0 mph 73% 0.00 in
06:34 9.1 °F 1.9 °F 30.08 in West 7.0 mph 9.0 mph 72% 0.00 in
06:39 9.1 °F 1.9 °F 30.08 in West 5.0 mph 8.0 mph 72% 0.00 in
06:44 9.0 °F 1.8 °F 30.08 in NW 1.0 mph 6.0 mph 72% 0.00 in
06:49 8.9 °F 1.4 °F 30.08 in West 4.0 mph 9.0 mph 71% 0.00 in
06:54 8.8 °F 1.3 °F 30.07 in WNW 3.0 mph 5.0 mph 71% 0.00 in
06:59 8.6 °F 1.1 °F 30.08 in SW 2.0 mph 5.0 mph 71% 0.00 in
07:04 8.4 °F 0.9 °F 30.08 in West 3.0 mph 5.0 mph 71% 0.00 in
07:09 8.3 °F 1.1 °F 30.08 in West 4.0 mph 7.0 mph 72% 0.00 in
07:14 8.3 °F 1.1 °F 30.08 in West 3.0 mph 7.0 mph 72% 0.00 in
07:19 8.2 °F 1.0 °F 30.08 in WSW 4.0 mph 6.0 mph 72% 0.00 in
07:24 8.2 °F 1.0 °F 30.08 in West 3.0 mph 6.0 mph 72% 0.00 in
07:29 8.2 °F 1.0 °F 30.08 in WSW 4.0 mph 4.0 mph 72% 0.00 in
07:34 8.1 °F 0.9 °F 30.09 in West 1.0 mph 5.0 mph 72% 0.00 in
07:39 8.1 °F 0.6 °F 30.09 in West 4.0 mph 6.0 mph 71% 0.00 in
07:44 8.1 °F 0.6 °F 30.09 in West 3.0 mph 8.0 mph 71% 0.00 in
07:49 8.2 °F 0.7 °F 30.09 in WSW 6.0 mph 8.0 mph 71% 0.00 in
07:54 8.5 °F 1.0 °F 30.09 in West 5.0 mph 16.0 mph 71% 0.00 in
07:59 8.6 °F 1.1 °F 30.09 in WNW 6.0 mph 16.0 mph 71% 0.00 in
08:04 8.7 °F 1.2 °F 30.09 in WNW 6.0 mph 11.0 mph 71% 0.00 in
08:09 8.7 °F 1.2 °F 30.10 in West 2.0 mph 9.0 mph 71% 0.00 in
08:14 8.5 °F 1.0 °F 30.10 in NW 3.0 mph 7.0 mph 71% 0.00 in
08:19 8.5 °F 1.0 °F 30.10 in NW 3.0 mph 9.0 mph 71% 0.00 in
08:24 8.5 °F 1.3 °F 30.11 in WNW 4.0 mph 10.0 mph 72% 0.00 in
08:29 8.5 °F 1.3 °F 30.11 in WNW 4.0 mph 10.0 mph 72% 0.00 in
08:34 8.5 °F 1.3 °F 30.10 in WNW 4.0 mph 8.0 mph 72% 0.00 in
08:39 8.5 °F 1.3 °F 30.11 in WNW 5.0 mph 9.0 mph 72% 0.00 in
08:44 8.6 °F 1.4 °F 30.11 in WNW 5.0 mph 10.0 mph 72% 0.00 in
08:49 8.8 °F 1.3 °F 30.10 in WNW 4.0 mph 10.0 mph 71% 0.00 in
08:54 9.0 °F 1.5 °F 30.11 in WNW 7.0 mph 9.0 mph 71% 0.00 in
08:59 9.2 °F 1.4 °F 30.11 in West 5.0 mph 9.0 mph 70% 0.00 in
09:04 9.5 °F 1.7 °F 30.11 in WSW 5.0 mph 8.0 mph 70% 0.00 in
09:09 9.9 °F 1.8 °F 30.11 in WNW 4.0 mph 6.0 mph 69% 0.00 in
09:14 10.3 °F 2.1 °F 30.11 in WNW 5.0 mph 7.0 mph 69% 0.00 in
09:19 10.7 °F 2.5 °F 30.11 in WNW 3.0 mph 7.0 mph 69% 0.00 in
09:24 11.1 °F 2.6 °F 30.12 in WNW 4.0 mph 11.0 mph 68% 0.00 in
09:29 11.2 °F 2.7 °F 30.13 in WNW 5.0 mph 11.0 mph 68% 0.00 in
09:34 11.3 °F 2.8 °F 30.13 in West 5.0 mph 11.0 mph 68% 0.00 in
09:39 11.4 °F 2.9 °F 30.13 in West 5.0 mph 10.0 mph 68% 0.00 in
09:44 11.5 °F 3.0 °F 30.14 in West 3.0 mph 10.0 mph 68% 0.00 in
09:49 11.7 °F 2.8 °F 30.14 in West 2.0 mph 5.0 mph 67% 0.00 in
09:54 11.8 °F 2.9 °F 30.14 in West 3.0 mph 6.0 mph 67% 0.00 in
09:59 11.9 °F 3.0 °F 30.14 in WSW 5.0 mph 7.0 mph 67% 0.00 in
10:04 12.2 °F 2.7 °F 30.14 in West 7.0 mph 8.0 mph 65% 0.00 in
10:09 12.4 °F 2.9 °F 30.14 in WSW 2.0 mph 7.0 mph 65% 0.00 in
10:14 12.5 °F 3.0 °F 30.15 in SW 3.0 mph 4.0 mph 65% 0.00 in
10:19 12.6 °F 3.4 °F 30.16 in West 3.0 mph 6.0 mph 66% 0.00 in
10:24 12.9 °F 3.7 °F 30.16 in WNW 1.0 mph 8.0 mph 66% 0.00 in
10:29 13.2 °F 4.0 °F 30.16 in WSW 3.0 mph 8.0 mph 66% 0.00 in
10:34 13.6 °F 4.7 °F 30.17 in SW 2.0 mph 4.0 mph 67% 0.00 in
10:39 14.7 °F 4.7 °F 30.16 in West 1.0 mph 3.0 mph 64% 0.00 in
10:44 15.6 °F 4.9 °F 30.16 in West 1.0 mph 5.0 mph 62% 0.00 in
10:49 16.0 °F 4.2 °F 30.15 in WNW 3.0 mph 7.0 mph 59% 0.00 in
10:54 16.2 °F 4.7 °F 30.15 in West 6.0 mph 7.0 mph 60% 0.00 in
10:59 16.0 °F 3.4 °F 30.16 in West 3.0 mph 9.0 mph 57% 0.00 in
11:04 16.0 °F 3.4 °F 30.15 in WSW 5.0 mph 10.0 mph 57% 0.00 in
11:09 16.7 °F 4.5 °F 30.16 in West 5.0 mph 11.0 mph 58% 0.00 in
11:14 16.9 °F 4.7 °F 30.16 in West 7.0 mph 9.0 mph 58% 0.00 in
11:19 17.1 °F 4.1 °F 30.16 in WSW 4.0 mph 11.0 mph 56% 0.00 in
11:24 17.3 °F 3.9 °F 30.17 in NW 5.0 mph 13.0 mph 55% 0.00 in
11:29 17.2 °F 3.4 °F 30.17 in West 6.0 mph 13.0 mph 54% 0.00 in
11:34 17.2 °F 4.2 °F 30.16 in West 6.0 mph 13.0 mph 56% 0.00 in
11:39 16.9 °F 3.9 °F 30.16 in West 6.0 mph 13.0 mph 56% 0.00 in
11:44 16.8 °F 3.8 °F 30.15 in West 7.0 mph 13.0 mph 56% 0.00 in
11:49 16.8 °F 3.8 °F 30.15 in West 6.0 mph 13.0 mph 56% 0.00 in
11:54 16.6 °F 3.6 °F 30.15 in West 6.0 mph 12.0 mph 56% 0.00 in
11:59 16.7 °F 3.7 °F 30.15 in WNW 4.0 mph 10.0 mph 56% 0.00 in
12:04 16.8 °F 3.4 °F 30.15 in West 5.0 mph 10.0 mph 55% 0.00 in
12:09 17.1 °F 4.1 °F 30.15 in West 9.0 mph 10.0 mph 56% 0.00 in
12:14 17.5 °F 4.5 °F 30.15 in WNW 8.0 mph 12.0 mph 56% 0.00 in
12:19 17.5 °F 4.1 °F 30.15 in SW 9.0 mph 12.0 mph 55% 0.00 in
12:24 17.6 °F 4.2 °F 30.15 in West 4.0 mph 12.0 mph 55% 0.00 in
12:29 17.6 °F 4.2 °F 30.15 in WSW 7.0 mph 16.0 mph 55% 0.00 in
12:34 17.6 °F 4.2 °F 30.15 in WNW 6.0 mph 13.0 mph 55% 0.00 in
12:39 17.6 °F 4.2 °F 30.14 in West 7.0 mph 13.0 mph 55% 0.00 in
12:44 17.5 °F 3.7 °F 30.14 in West 7.0 mph 13.0 mph 54% 0.00 in
12:49 17.5 °F 4.1 °F 30.14 in West 7.0 mph 13.0 mph 55% 0.00 in
12:54 17.4 °F 3.6 °F 30.14 in WNW 7.0 mph 11.0 mph 54% 0.00 in
12:59 17.5 °F 4.8 °F 30.14 in West 8.0 mph 15.0 mph 57% 0.00 in
13:04 17.9 °F 4.4 °F 30.14 in NW 16.0 mph 16.0 mph 55% 0.00 in
13:09 17.6 °F 4.9 °F 30.15 in West 7.0 mph 16.0 mph 57% 0.00 in
13:14 17.9 °F 4.8 °F 30.15 in West 8.0 mph 16.0 mph 56% 0.00 in
13:19 17.9 °F 4.8 °F 30.15 in West 8.0 mph 15.0 mph 56% 0.00 in
13:24 17.9 °F 4.4 °F 30.15 in West 6.0 mph 15.0 mph 55% 0.00 in
13:29 17.9 °F 4.8 °F 30.15 in West 4.0 mph 11.0 mph 56% 0.00 in
13:34 18.1 °F 5.4 °F 30.15 in West 7.0 mph 13.0 mph 57% 0.00 in
13:39 18.1 °F 5.0 °F 30.15 in West 10.0 mph 14.0 mph 56% 0.00 in
13:44 18.1 °F 5.4 °F 30.15 in West 8.0 mph 17.0 mph 57% 0.00 in
13:49 18.4 °F 5.7 °F 30.15 in West 8.0 mph 17.0 mph 57% 0.00 in
13:54 18.7 °F 6.0 °F 30.15 in West 8.0 mph 15.0 mph 57% 0.00 in
14:04 18.9 °F 6.2 °F 30.15 in WSW 15.0 mph 15.0 mph 57% 0.00 in
14:09 18.6 °F 5.9 °F 30.16 in WSW 11.0 mph 18.0 mph 57% 0.00 in
14:14 18.6 °F 6.3 °F 30.15 in WSW 9.0 mph 21.0 mph 58% 0.00 in
14:19 18.4 °F 5.3 °F 30.15 in WSW 8.0 mph 21.0 mph 56% 0.00 in
14:24 18.7 °F 5.2 °F 30.15 in WSW 6.0 mph 14.0 mph 55% 0.00 in
14:29 18.5 °F 5.4 °F 30.15 in West 11.0 mph 11.0 mph 56% 0.00 in
14:34 18.3 °F 5.2 °F 30.15 in West 5.0 mph 15.0 mph 56% 0.00 in
14:39 18.5 °F 5.4 °F 30.15 in SW 6.0 mph 12.0 mph 56% 0.00 in
14:44 18.9 °F 5.8 °F 30.15 in West 5.0 mph 12.0 mph 56% 0.00 in
14:49 18.6 °F 6.3 °F 30.15 in SW 12.0 mph 14.0 mph 58% 0.00 in
14:54 18.3 °F 6.0 °F 30.16 in West 8.0 mph 16.0 mph 58% 0.00 in
14:59 18.2 °F 5.9 °F 30.16 in WNW 4.0 mph 15.0 mph 58% 0.00 in
15:04 17.8 °F 5.9 °F 30.17 in West 4.0 mph 14.0 mph 59% 0.00 in
15:09 17.4 °F 5.9 °F 30.17 in West 6.0 mph 15.0 mph 60% 0.00 in
15:14 17.2 °F 6.0 °F 30.17 in West 7.0 mph 15.0 mph 61% 0.00 in
15:19 17.4 °F 6.6 °F 30.18 in West 5.0 mph 13.0 mph 62% 0.00 in
15:24 17.3 °F 6.5 °F 30.18 in West 6.0 mph 14.0 mph 62% 0.00 in
15:29 17.3 °F 6.5 °F 30.18 in West 6.0 mph 14.0 mph 62% 0.00 in
15:34 17.2 °F 6.4 °F 30.19 in West 9.0 mph 12.0 mph 62% 0.00 in
15:39 17.2 °F 7.4 °F 30.19 in WSW 4.0 mph 12.0 mph 65% 0.00 in
15:44 17.2 °F 7.1 °F 30.19 in West 8.0 mph 11.0 mph 64% 0.00 in
15:49 17.1 °F 7.3 °F 30.19 in West 6.0 mph 14.0 mph 65% 0.00 in
15:54 17.0 °F 7.3 °F 30.19 in NW 6.0 mph 14.0 mph 65% 0.00 in
15:59 16.9 °F 7.2 °F 30.19 in WSW 8.0 mph 10.0 mph 65% 0.00 in
16:04 16.9 °F 7.2 °F 30.19 in West 8.0 mph 9.0 mph 65% 0.00 in
16:09 16.9 °F 7.2 °F 30.19 in WSW 4.0 mph 8.0 mph 65% 0.00 in
16:14 16.9 °F 7.2 °F 30.19 in West 4.0 mph 9.0 mph 65% 0.00 in
16:19 16.7 °F 7.0 °F 30.20 in West 6.0 mph 12.0 mph 65% 0.00 in
16:24 16.6 °F 6.9 °F 30.20 in West 6.0 mph 12.0 mph 65% 0.00 in
16:29 16.4 °F 6.3 °F 30.20 in West 6.0 mph 11.0 mph 64% 0.00 in
16:34 16.2 °F 6.5 °F 30.20 in West 6.0 mph 10.0 mph 65% 0.00 in
16:44 16.2 °F 5.8 °F 30.20 in NW 5.0 mph 13.0 mph 63% 0.00 in
16:49 16.1 °F 5.7 °F 30.21 in West 6.0 mph 12.0 mph 63% 0.00 in
16:54 15.8 °F 5.1 °F 30.21 in West 6.0 mph 15.0 mph 62% 0.00 in
16:59 15.6 °F 4.9 °F 30.21 in West 8.0 mph 13.0 mph 62% 0.00 in
17:04 15.3 °F 4.6 °F 30.22 in WNW 3.0 mph 12.0 mph 62% 0.00 in
17:09 15.0 °F 4.3 °F 30.22 in WNW 4.0 mph 13.0 mph 62% 0.00 in
17:14 14.9 °F 3.9 °F 30.22 in WSW 10.0 mph 12.0 mph 61% 0.00 in
17:19 14.7 °F 3.7 °F 30.22 in West 6.0 mph 13.0 mph 61% 0.00 in
17:24 14.5 °F 3.5 °F 30.23 in West 5.0 mph 13.0 mph 61% 0.00 in
17:29 14.4 °F 3.4 °F 30.23 in West 4.0 mph 13.0 mph 61% 0.00 in
17:34 14.3 °F 2.9 °F 30.23 in West 6.0 mph 13.0 mph 60% 0.00 in
17:39 14.1 °F 3.1 °F 30.24 in WNW 7.0 mph 12.0 mph 61% 0.00 in
17:44 14.0 °F 3.0 °F 30.24 in West 6.0 mph 12.0 mph 61% 0.00 in
17:49 13.8 °F 2.8 °F 30.25 in West 5.0 mph 12.0 mph 61% 0.00 in
17:54 13.7 °F 3.1 °F 30.25 in WNW 2.0 mph 10.0 mph 62% 0.00 in
17:59 13.5 °F 2.9 °F 30.25 in West 4.0 mph 10.0 mph 62% 0.00 in
18:04 13.4 °F 3.1 °F 30.25 in SW 2.0 mph 6.0 mph 63% 0.00 in
18:09 13.2 °F 2.9 °F 30.26 in West 1.0 mph 7.0 mph 63% 0.00 in
18:14 13.2 °F 2.9 °F 30.26 in NW 3.0 mph 8.0 mph 63% 0.00 in
18:19 13.0 °F 3.1 °F 30.26 in WNW 5.0 mph 8.0 mph 64% 0.00 in
18:24 12.8 °F 2.9 °F 30.26 in WNW 3.0 mph 8.0 mph 64% 0.00 in
18:34 12.7 °F 2.8 °F 30.27 in West 5.0 mph 10.0 mph 64% 0.00 in
18:39 12.6 °F 2.7 °F 30.27 in West 5.0 mph 9.0 mph 64% 0.00 in
18:44 12.6 °F 2.7 °F 30.28 in West 5.0 mph 12.0 mph 64% 0.00 in
18:49 12.5 °F 2.6 °F 30.28 in West 5.0 mph 12.0 mph 64% 0.00 in
18:54 12.5 °F 2.6 °F 30.28 in West 5.0 mph 12.0 mph 64% 0.00 in
18:59 12.4 °F 2.5 °F 30.28 in West 2.0 mph 8.0 mph 64% 0.00 in
19:04 12.3 °F 2.4 °F 30.28 in WNW 1.0 mph 5.0 mph 64% 0.00 in
19:09 12.2 °F 2.7 °F 30.28 in West 5.0 mph 6.0 mph 65% 0.00 in
19:14 12.1 °F 2.6 °F 30.28 in WNW 3.0 mph 6.0 mph 65% 0.00 in
19:19 11.9 °F 2.4 °F 30.29 in West 4.0 mph 7.0 mph 65% 0.00 in
19:24 11.9 °F 2.0 °F 30.29 in WNW 5.0 mph 9.0 mph 64% 0.00 in
19:29 11.9 °F 2.0 °F 30.29 in WSW 5.0 mph 10.0 mph 64% 0.00 in
19:34 11.9 °F 2.0 °F 30.30 in WNW 3.0 mph 6.0 mph 64% 0.00 in
19:39 11.9 °F 2.0 °F 30.30 in West 3.0 mph 5.0 mph 64% 0.00 in
19:44 11.7 °F 1.9 °F 30.30 in WNW 3.0 mph 8.0 mph 64% 0.00 in
19:49 11.7 °F 1.9 °F 30.30 in WNW 3.0 mph 8.0 mph 64% 0.00 in
19:54 11.6 °F 1.8 °F 30.31 in WNW 3.0 mph 8.0 mph 64% 0.00 in
19:59 11.4 °F 1.6 °F 30.31 in WNW 3.0 mph 8.0 mph 64% 0.00 in
20:04 11.4 °F 1.6 °F 30.31 in NW 1.0 mph 8.0 mph 64% 0.00 in
20:09 11.3 °F 1.5 °F 30.30 in West 4.0 mph 5.0 mph 64% 0.00 in
20:14 11.2 °F 1.4 °F 30.30 in NW 3.0 mph 9.0 mph 64% 0.00 in
20:19 11.2 °F 1.4 °F 30.31 in WNW 3.0 mph 9.0 mph 64% 0.00 in
20:24 11.2 °F 1.4 °F 30.31 in WNW 4.0 mph 8.0 mph 64% 0.00 in
20:29 11.1 °F 1.3 °F 30.30 in WNW 4.0 mph 8.0 mph 64% 0.00 in
20:34 11.1 °F 1.3 °F 30.30 in WNW 4.0 mph 7.0 mph 64% 0.00 in
20:39 11.1 °F 1.3 °F 30.30 in WNW 5.0 mph 7.0 mph 64% 0.00 in
20:44 10.9 °F 1.1 °F 30.30 in West 3.0 mph 5.0 mph 64% 0.00 in
20:49 10.9 °F 1.1 °F 30.30 in West 3.0 mph 5.0 mph 64% 0.00 in
20:54 10.8 °F 1.0 °F 30.31 in West 2.0 mph 5.0 mph 64% 0.00 in
20:59 10.7 °F 1.2 °F 30.31 in West 2.0 mph 5.0 mph 65% 0.00 in
21:04 10.6 °F 1.1 °F 30.31 in West 2.0 mph 5.0 mph 65% 0.00 in
21:09 10.5 °F 1.0 °F 30.31 in West 1.0 mph 3.0 mph 65% 0.00 in
21:14 10.5 °F 1.0 °F 30.31 in WSW 1.0 mph 3.0 mph 65% 0.00 in
21:19 10.4 °F 1.0 °F 30.31 in Calm   1.0 mph 65% 0.00 in
21:24 10.1 °F 0.3 °F 30.31 in Calm     64% 0.00 in
21:29 10.0 °F 0.2 °F 30.31 in Calm     64% 0.00 in
21:34 9.7 °F 0.0 °F 30.31 in Calm     64% 0.00 in
21:39 9.2 °F 0.1 °F 30.31 in Calm     66% 0.00 in
21:44 8.9 °F -0.2 °F 30.31 in Calm     66% 0.00 in
21:49 8.6 °F -0.4 °F 30.31 in Calm     66% 0.00 in
21:54 8.3 °F -0.4 °F 30.31 in Calm     67% 0.00 in
21:59 8.0 °F -0.4 °F 30.31 in Calm     68% 0.00 in
22:04 7.7 °F -0.4 °F 30.31 in Calm     69% 0.00 in
22:09 7.5 °F -0.6 °F 30.32 in Calm     69% 0.00 in
22:14 7.3 °F -0.7 °F 30.32 in Calm     69% 0.00 in
22:19 7.1 °F -0.6 °F 30.32 in Calm     70% 0.00 in
22:24 7.0 °F -0.7 °F 30.32 in Calm     70% 0.00 in
22:29 6.7 °F -1.3 °F 30.33 in Calm     69% 0.00 in
22:34 6.5 °F -1.2 °F 30.33 in Calm     70% 0.00 in
22:39 6.3 °F -1.1 °F 30.33 in Calm     71% 0.00 in
22:44 6.1 °F -1.3 °F 30.33 in Calm     71% 0.00 in
22:49 5.9 °F -1.2 °F 30.33 in Calm     72% 0.00 in
22:54 5.8 °F -1.3 °F 30.33 in Calm     72% 0.00 in
22:59 5.8 °F -0.7 °F 30.34 in Calm     74% 0.00 in
23:04 5.8 °F -0.4 °F 30.34 in Calm     75% 0.00 in
23:09 6.0 °F 0.1 °F 30.34 in Calm     76% 0.00 in
23:14 6.3 °F 0.6 °F 30.34 in Calm     77% 0.00 in
23:19 6.7 °F 1.0 °F 30.34 in Calm     77% 0.00 in
23:24 7.2 °F 1.5 °F 30.34 in Calm     77% 0.00 in
23:29 7.7 °F 2.0 °F 30.34 in Calm     77% 0.00 in
23:34 8.1 °F 2.4 °F 30.34 in WSW 1.0 mph 2.0 mph 77% 0.00 in
23:39 8.7 °F 2.7 °F 30.34 in Calm   2.0 mph 76% 0.00 in
23:44 9.0 °F 2.7 °F 30.34 in Calm   3.0 mph 75% 0.00 in
23:49 9.2 °F 2.9 °F 30.34 in WSW 1.0 mph 3.0 mph 75% 0.00 in
23:54 9.4 °F 2.8 °F 30.34 in West 1.0 mph 3.0 mph 74% 0.00 in
23:59 9.5 °F 2.9 °F 30.34 in Calm   3.0 mph 74% 0.00 in
Buffalo, New York, USA
Compliments of Weather Underground - 2.5 mb